Bogard Atmospheric Data: 12/06/2018 Summary  Detailed Graphs  Station List

  Temperature     Wind Precipitation Visibility
Timestamp Wet
Bulb
Dew-
point
24-hr
Max
24-hr
Min
Relative
Humidity
Atmospheric
Pressure
Avg
Speed
Avg
Dir
Spot
Speed
Spot
Dir
Max
Speed
Max
Dir
  Rate Situation Start End 1 hr 3 hr 6 hr 12 hr 24 hr   Situation
Date Time °F °F °F °F % in Hg mph ° mph ° mph ° Y/N in/hr text Date Time Date Time in in in in in mi text
12/06/2018 12:02 AM 24.62 23.36 31.46 24.62 92.0 Not Reported 4.25 SE 2.24 SE 6.04 SE No 0.000 No Precipitation 12/05/2018 08:22 AM 12/05/2018 08:27 AM 0.000 0.000 0.000 0.000 0.039 Not Reported Not Reported
12/06/2018 12:17 AM 24.62 23.72 31.46 24.62 93.0 Not Reported 3.58 SE 2.01 SE 6.26 SE No 0.000 No Precipitation 12/05/2018 08:22 AM 12/05/2018 08:27 AM 0.000 0.000 0.000 0.000 0.039 Not Reported Not Reported
12/06/2018 12:32 AM 24.62 23.72 31.46 24.62 94.0 Not Reported 3.80 S 1.79 SE 5.37 SE No 0.000 No Precipitation 12/05/2018 08:22 AM 12/05/2018 08:27 AM 0.000 0.000 0.000 0.000 0.039 Not Reported Not Reported
12/06/2018 12:47 AM 24.62 23.90 31.46 24.62 95.0 Not Reported 4.03 S 4.92 S 4.92 SE No 0.000 No Precipitation 12/05/2018 08:22 AM 12/05/2018 08:27 AM 0.000 0.000 0.000 0.000 0.039 Not Reported Not Reported
12/06/2018 01:02 AM 24.62 23.90 31.46 24.62 95.0 Not Reported 4.92 S 4.03 S 5.59 S No 0.000 No Precipitation 12/05/2018 08:22 AM 12/05/2018 08:27 AM 0.000 0.000 0.000 0.000 0.039 Not Reported Not Reported
12/06/2018 01:17 AM 24.62 23.90 31.46 24.62 95.0 Not Reported 3.58 S 4.03 S 5.37 S No 0.000 No Precipitation 12/05/2018 08:22 AM 12/05/2018 08:27 AM 0.000 0.000 0.000 0.000 0.039 Not Reported Not Reported
12/06/2018 01:32 AM 24.62 23.90 31.46 24.62 95.0 Not Reported 2.24 SE 4.03 S 5.14 SE No 0.000 No Precipitation 12/05/2018 08:22 AM 12/05/2018 08:27 AM 0.000 0.000 0.000 0.000 0.039 Not Reported Not Reported
12/06/2018 01:47 AM 24.62 23.90 31.46 24.62 95.0 Not Reported 3.13 SE 2.91 SE 5.37 S No 0.000 No Precipitation 12/05/2018 08:22 AM 12/05/2018 08:27 AM 0.000 0.000 0.000 0.000 0.039 Not Reported Not Reported
12/06/2018 02:02 AM 24.62 23.90 31.46 24.62 95.0 Not Reported 2.46 SE 2.46 SE 4.92 SE No 0.000 No Precipitation 12/05/2018 08:22 AM 12/05/2018 08:27 AM 0.000 0.000 0.000 0.000 0.039 Not Reported Not Reported
12/06/2018 02:17 AM 24.44 24.08 31.46 24.62 96.0 Not Reported 3.13 SE 4.92 S 4.92 S No 0.000 No Precipitation 12/05/2018 08:22 AM 12/05/2018 08:27 AM 0.000 0.000 0.000 0.000 0.039 Not Reported Not Reported
12/06/2018 02:32 AM 24.62 24.08 31.46 24.62 96.0 Not Reported 2.46 SE 1.57 SE 5.14 SE No 0.000 No Precipitation 12/05/2018 08:22 AM 12/05/2018 08:27 AM 0.000 0.000 0.000 0.000 0.039 Not Reported Not Reported
12/06/2018 02:47 AM 24.62 23.90 31.46 24.62 96.0 Not Reported 3.80 S 4.03 SE 4.70 SE No 0.000 No Precipitation 12/05/2018 08:22 AM 12/05/2018 08:27 AM 0.000 0.000 0.000 0.000 0.039 Not Reported Not Reported
12/06/2018 03:02 AM 24.44 23.90 31.46 24.62 96.0 Not Reported 3.80 S 3.58 SE 5.59 S No 0.000 No Precipitation 12/05/2018 08:22 AM 12/05/2018 08:27 AM 0.000 0.000 0.000 0.000 0.039 Not Reported Not Reported
12/06/2018 03:17 AM 24.44 23.90 31.46 24.62 96.0 Not Reported 3.80 SE 3.13 S 5.37 S No 0.000 No Precipitation 12/05/2018 08:22 AM 12/05/2018 08:27 AM 0.000 0.000 0.000 0.000 0.039 Not Reported Not Reported
12/06/2018 03:32 AM 24.62 23.90 31.46 24.62 96.0 Not Reported 2.91 S 5.37 S 3.58 S No 0.000 No Precipitation 12/05/2018 08:22 AM 12/05/2018 08:27 AM 0.000 0.000 0.000 0.000 0.035 Not Reported Not Reported
12/06/2018 03:47 AM 24.44 23.72 31.46 24.62 96.0 Not Reported 4.70 S 5.14 S 5.59 S No 0.000 No Precipitation 12/05/2018 08:22 AM 12/05/2018 08:27 AM 0.000 0.000 0.000 0.000 0.035 Not Reported Not Reported
12/06/2018 04:02 AM 24.26 23.72 31.46 24.44 96.0 Not Reported 3.58 S 2.01 S 5.14 SE No 0.000 No Precipitation 12/05/2018 08:22 AM 12/05/2018 08:27 AM 0.000 0.000 0.000 0.000 0.031 Not Reported Not Reported
12/06/2018 04:17 AM 24.26 23.72 31.46 24.44 96.0 Not Reported 2.24 S 2.68 S 5.37 SE No 0.000 No Precipitation 12/05/2018 08:22 AM 12/05/2018 08:27 AM 0.000 0.000 0.000 0.000 0.031 Not Reported Not Reported
12/06/2018 04:32 AM 24.26 23.54 31.46 24.44 95.0 Not Reported 4.03 S 5.14 SE 6.04 SE No 0.000 No Precipitation 12/05/2018 08:22 AM 12/05/2018 08:27 AM 0.000 0.000 0.000 0.000 0.028 Not Reported Not Reported
12/06/2018 04:47 AM 24.26 23.72 31.46 24.44 96.0 Not Reported 4.03 S 3.58 S 5.37 S No 0.000 No Precipitation 12/05/2018 08:22 AM 12/05/2018 08:27 AM 0.000 0.000 0.000 0.000 0.020 Not Reported Not Reported
12/06/2018 05:02 AM 24.08 23.54 31.46 24.26 96.0 Not Reported 3.58 S 3.36 S 6.26 S No 0.000 No Precipitation 12/05/2018 08:22 AM 12/05/2018 08:27 AM 0.000 0.000 0.000 0.000 0.016 Not Reported Not Reported
12/06/2018 05:17 AM 24.08 23.72 31.46 24.26 96.0 Not Reported 3.13 SE 3.13 S 6.49 S No 0.000 No Precipitation 12/05/2018 08:22 AM 12/05/2018 08:27 AM 0.000 0.000 0.000 0.000 0.016 Not Reported Not Reported
12/06/2018 05:32 AM 24.08 23.54 31.46 24.26 96.0 Not Reported 2.46 S 4.25 S 4.47 SE No 0.000 No Precipitation 12/05/2018 08:22 AM 12/05/2018 08:27 AM 0.000 0.000 0.000 0.000 0.016 Not Reported Not Reported
12/06/2018 05:47 AM 24.26 23.72 31.46 24.26 96.0 Not Reported 2.91 SE 3.36 S 6.26 S No 0.000 No Precipitation 12/05/2018 08:22 AM 12/05/2018 08:27 AM 0.000 0.000 0.000 0.000 0.008 Not Reported Not Reported
12/06/2018 06:02 AM 24.08 23.54 31.46 24.26 96.0 Not Reported 2.91 S 2.91 SE 4.25 S No 0.000 No Precipitation 12/05/2018 08:22 AM 12/05/2018 08:27 AM 0.000 0.000 0.000 0.000 0.008 Not Reported Not Reported
12/06/2018 06:17 AM 24.08 23.36 31.46 24.26 95.0 Not Reported 3.13 S 4.03 S 6.04 S No 0.000 No Precipitation 12/05/2018 08:22 AM 12/05/2018 08:27 AM 0.000 0.000 0.000 0.000 0.008 Not Reported Not Reported
12/06/2018 06:32 AM 24.08 23.36 31.46 24.08 96.0 Not Reported 4.25 S 2.91 SW 5.59 S No 0.000 No Precipitation 12/05/2018 08:22 AM 12/05/2018 08:27 AM 0.000 0.000 0.000 0.000 0.008 Not Reported Not Reported
12/06/2018 06:47 AM 23.90 23.36 31.46 24.08 96.0 Not Reported 2.46 SE 2.24 SE 5.14 S No 0.000 No Precipitation 12/05/2018 08:22 AM 12/05/2018 08:27 AM 0.000 0.000 0.000 0.000 0.008 Not Reported Not Reported
12/06/2018 07:02 AM 24.08 23.54 31.46 24.08 96.0 Not Reported 1.57 SE 1.79 S 3.80 SE No 0.000 No Precipitation 12/05/2018 08:22 AM 12/05/2018 08:27 AM 0.000 0.000 0.000 0.000 0.008 Not Reported Not Reported
12/06/2018 07:17 AM 23.72 23.18 31.46 24.08 95.0 Not Reported 4.92 S 4.03 S 5.82 S No 0.000 No Precipitation 12/05/2018 08:22 AM 12/05/2018 08:27 AM 0.000 0.000 0.000 0.000 0.008 Not Reported Not Reported
12/06/2018 07:32 AM 23.90 23.00 31.46 23.90 95.0 Not Reported 3.58 S 3.80 S 5.82 SE No 0.000 No Precipitation 12/05/2018 08:22 AM 12/05/2018 08:27 AM 0.000 0.000 0.000 0.000 0.008 Not Reported Not Reported
12/06/2018 07:47 AM 23.90 23.18 31.46 23.90 95.0 Not Reported 3.80 S 3.80 S 4.70 S No 0.000 No Precipitation 12/05/2018 08:22 AM 12/05/2018 08:27 AM 0.000 0.000 0.000 0.000 0.008 Not Reported Not Reported
12/06/2018 08:02 AM 24.08 23.36 31.46 23.90 95.0 Not Reported 3.13 S 3.36 SE 4.70 SE No 0.000 No Precipitation 12/05/2018 08:22 AM 12/05/2018 08:27 AM 0.000 0.000 0.000 0.000 0.004 Not Reported Not Reported
12/06/2018 08:17 AM 23.90 23.18 31.46 23.90 95.0 Not Reported 4.25 S 5.82 S 7.38 S No 0.000 No Precipitation 12/05/2018 08:22 AM 12/05/2018 08:27 AM 0.000 0.000 0.000 0.000 0.004 Not Reported Not Reported
12/06/2018 08:31 AM 24.26 23.36 31.46 23.90 95.0 Not Reported 4.25 S 3.58 SW 4.92 S No 0.000 No Precipitation 12/05/2018 08:22 AM 12/05/2018 08:27 AM 0.000 0.000 0.000 0.000 0.000 Not Reported Not Reported
12/06/2018 08:46 AM 24.44 23.54 31.46 23.90 93.0 Not Reported 2.91 S 3.13 S 5.82 SW No 0.000 No Precipitation 12/05/2018 08:22 AM 12/05/2018 08:27 AM 0.000 0.000 0.000 0.000 0.000 Not Reported Not Reported
12/06/2018 09:01 AM 24.44 23.00 31.46 23.90 92.0 Not Reported 4.03 SE 6.04 SE 6.04 SE No 0.000 No Precipitation 12/05/2018 08:22 AM 12/05/2018 08:27 AM 0.000 0.000 0.000 0.000 0.000 Not Reported Not Reported
12/06/2018 09:16 AM 24.62 23.36 31.46 23.90 92.0 Not Reported 3.58 SE 4.03 SE 6.04 SE No 0.000 No Precipitation 12/05/2018 08:22 AM 12/05/2018 08:27 AM 0.000 0.000 0.000 0.000 0.000 Not Reported Not Reported
12/06/2018 09:31 AM 24.62 23.54 31.46 23.90 92.0 Not Reported 3.58 SE 4.03 S 4.70 SE No 0.000 No Precipitation 12/05/2018 08:22 AM 12/05/2018 08:27 AM 0.000 0.000 0.000 0.000 0.000 Not Reported Not Reported
12/06/2018 09:46 AM 24.80 23.72 31.46 23.90 92.0 Not Reported 3.36 S 3.36 SE 5.82 S No 0.000 No Precipitation 12/05/2018 08:22 AM 12/05/2018 08:27 AM 0.000 0.000 0.000 0.000 0.000 Not Reported Not Reported
12/06/2018 10:01 AM 24.98 23.72 31.46 23.90 92.0 Not Reported 2.91 S 4.70 S 7.38 S No 0.000 No Precipitation 12/05/2018 08:22 AM 12/05/2018 08:27 AM 0.000 0.000 0.000 0.000 0.000 Not Reported Not Reported
12/06/2018 10:16 AM 25.16 23.90 31.46 23.90 92.0 Not Reported 3.58 S 3.58 S 6.71 S No 0.000 No Precipitation 12/05/2018 08:22 AM 12/05/2018 08:27 AM 0.000 0.000 0.000 0.000 0.000 Not Reported Not Reported
12/06/2018 10:31 AM 24.98 23.72 31.46 23.90 92.0 Not Reported 4.92 S 4.70 S 6.71 SW No 0.000 No Precipitation 12/05/2018 08:22 AM 12/05/2018 08:27 AM 0.000 0.000 0.000 0.000 0.000 Not Reported Not Reported
12/06/2018 10:46 AM 25.34 23.90 31.46 23.90 91.0 Not Reported 4.70 SE 5.82 SE 4.92 S No 0.000 No Precipitation 12/05/2018 08:22 AM 12/05/2018 08:27 AM 0.000 0.000 0.000 0.000 0.000 Not Reported Not Reported
12/06/2018 11:01 AM 25.34 24.08 31.46 23.90 92.0 Not Reported 4.92 S 4.03 S 7.61 S No 0.000 No Precipitation 12/05/2018 08:22 AM 12/05/2018 08:27 AM 0.000 0.000 0.000 0.000 0.000 Not Reported Not Reported
12/06/2018 11:16 AM 25.70 23.90 31.46 23.90 90.0 Not Reported 4.47 S 3.13 S 5.59 SE No 0.000 No Precipitation 12/05/2018 08:22 AM 12/05/2018 08:27 AM 0.000 0.000 0.000 0.000 0.000 Not Reported Not Reported
12/06/2018 11:31 AM 25.52 24.08 31.46 23.90 90.0 Not Reported 5.82 S 4.92 SE 6.71 S No 0.000 No Precipitation 12/05/2018 08:22 AM 12/05/2018 08:27 AM 0.000 0.000 0.000 0.000 0.000 Not Reported Not Reported
12/06/2018 11:46 AM 25.52 24.08 31.46 23.90 90.0 Not Reported 4.47 S 4.92 SE 6.93 S No 0.000 No Precipitation 12/05/2018 08:22 AM 12/05/2018 08:27 AM 0.000 0.000 0.000 0.000 0.000 Not Reported Not Reported
12/06/2018 12:01 PM 26.06 24.44 31.46 23.90 90.0 Not Reported 4.92 SE 4.25 E 5.82 SE No 0.000 No Precipitation 12/05/2018 08:22 AM 12/05/2018 08:27 AM 0.000 0.000 0.000 0.000 0.000 Not Reported Not Reported
12/06/2018 12:16 PM 25.52 24.26 31.46 23.90 90.0 Not Reported 6.04 S 4.92 SE 7.38 S No 0.000 No Precipitation 12/05/2018 08:22 AM 12/05/2018 08:27 AM 0.000 0.000 0.000 0.000 0.000 Not Reported Not Reported
12/06/2018 12:31 PM 25.70 24.08 31.46 23.90 90.0 Not Reported 5.59 S 3.80 S 6.49 S No 0.000 No Precipitation 12/05/2018 08:22 AM 12/05/2018 08:27 AM 0.000 0.000 0.000 0.000 0.000 Not Reported Not Reported
12/06/2018 12:46 PM 25.70 24.08 31.46 23.90 90.0 Not Reported 5.82 S 3.80 S 7.61 S No 0.000 No Precipitation 12/05/2018 08:22 AM 12/05/2018 08:27 AM 0.000 0.000 0.000 0.000 0.000 Not Reported Not Reported
12/06/2018 01:01 PM 26.06 24.26 31.28 23.90 89.0 Not Reported 4.03 S 8.05 S 5.82 S No 0.000 No Precipitation 12/05/2018 08:22 AM 12/05/2018 08:27 AM 0.000 0.000 0.000 0.000 0.000 Not Reported Not Reported
12/06/2018 01:16 PM 26.42 24.80 31.28 23.90 89.0 Not Reported 1.34 S 1.12 S 8.05 S No 0.000 No Precipitation 12/05/2018 08:22 AM 12/05/2018 08:27 AM 0.000 0.000 0.000 0.000 0.000 Not Reported Not Reported
12/06/2018 01:31 PM 26.42 24.62 31.10 23.90 89.0 Not Reported 4.47 S 2.91 S 5.14 SE No 0.000 No Precipitation 12/05/2018 08:22 AM 12/05/2018 08:27 AM 0.000 0.000 0.000 0.000 0.000 Not Reported Not Reported
12/06/2018 01:46 PM 26.42 24.62 31.10 23.90 88.0 Not Reported 3.80 S 3.36 SE 6.04 SE No 0.000 No Precipitation 12/05/2018 08:22 AM 12/05/2018 08:27 AM 0.000 0.000 0.000 0.000 0.000 Not Reported Not Reported
12/06/2018 02:01 PM 26.42 24.62 30.92 23.90 89.0 Not Reported 3.13 S 3.80 S 6.71 SE No 0.000 No Precipitation 12/05/2018 08:22 AM 12/05/2018 08:27 AM 0.000 0.000 0.000 0.000 0.000 Not Reported Not Reported
12/06/2018 02:16 PM 26.42 24.62 30.92 23.90 89.0 Not Reported 3.36 S 2.68 S 6.26 S No 0.000 No Precipitation 12/05/2018 08:22 AM 12/05/2018 08:27 AM 0.000 0.000 0.000 0.000 0.000 Not Reported Not Reported
12/06/2018 02:31 PM 26.42 24.80 30.38 23.90 89.0 Not Reported 2.46 S 1.79 S 5.14 S No 0.000 No Precipitation 12/05/2018 08:22 AM 12/05/2018 08:27 AM 0.000 0.000 0.000 0.000 0.000 Not Reported Not Reported
12/06/2018 02:46 PM 26.24 24.62 30.20 23.90 90.0 Not Reported 1.57 S 2.01 S 4.70 SW No 0.000 No Precipitation 12/05/2018 08:22 AM 12/05/2018 08:27 AM 0.000 0.000 0.000 0.000 0.000 Not Reported Not Reported
12/06/2018 03:01 PM 25.88 24.44 30.02 23.90 91.0 Not Reported 5.14 SE 4.70 S 6.04 SE No 0.000 No Precipitation 12/05/2018 08:22 AM 12/05/2018 08:27 AM 0.000 0.000 0.000 0.000 0.000 Not Reported Not Reported
12/06/2018 03:16 PM 25.70 24.62 29.84 23.90 91.0 Not Reported 2.24 SE 1.57 E 5.59 SE No 0.000 No Precipitation 12/05/2018 08:22 AM 12/05/2018 08:27 AM 0.000 0.000 0.000 0.000 0.000 Not Reported Not Reported
12/06/2018 03:31 PM 25.52 24.26 29.84 23.90 91.0 Not Reported 2.46 SE 4.03 SE 4.70 S No 0.000 No Precipitation 12/05/2018 08:22 AM 12/05/2018 08:27 AM 0.000 0.000 0.000 0.000 0.000 Not Reported Not Reported
12/06/2018 03:46 PM 25.34 24.08 29.48 23.90 92.0 Not Reported 4.70 SE 6.93 SE 5.82 SE No 0.000 No Precipitation 12/05/2018 08:22 AM 12/05/2018 08:27 AM 0.000 0.000 0.000 0.000 0.000 Not Reported Not Reported
12/06/2018 04:01 PM 25.16 24.08 28.94 23.90 93.0 Not Reported 3.36 S 1.57 SE 5.14 SE No 0.000 No Precipitation 12/05/2018 08:22 AM 12/05/2018 08:27 AM 0.000 0.000 0.000 0.000 0.000 Not Reported Not Reported
12/06/2018 04:16 PM 24.98 24.08 28.94 23.90 93.0 Not Reported 2.91 SE 2.24 SE 4.25 SE No 0.000 No Precipitation 12/05/2018 08:22 AM 12/05/2018 08:27 AM 0.000 0.000 0.000 0.000 0.000 Not Reported Not Reported
12/06/2018 04:31 PM 24.80 23.90 28.76 23.90 94.0 Not Reported 3.36 SE 2.68 S 4.70 SE No 0.000 No Precipitation 12/05/2018 08:22 AM 12/05/2018 08:27 AM 0.000 0.000 0.000 0.000 0.000 Not Reported Not Reported
12/06/2018 04:46 PM 24.44 23.72 28.22 23.90 94.0 Not Reported 2.01 SE 2.91 S 4.03 S No 0.000 No Precipitation 12/05/2018 08:22 AM 12/05/2018 08:27 AM 0.000 0.000 0.000 0.000 0.000 Not Reported Not Reported
12/06/2018 05:01 PM 24.26 23.54 27.68 23.90 95.0 Not Reported 4.92 S 2.68 S 6.71 S No 0.000 No Precipitation 12/05/2018 08:22 AM 12/05/2018 08:27 AM 0.000 0.000 0.000 0.000 0.000 Not Reported Not Reported
12/06/2018 05:16 PM 23.90 23.18 27.68 23.90 96.0 Not Reported 4.47 S 4.70 S 6.49 SE No 0.000 No Precipitation 12/05/2018 08:22 AM 12/05/2018 08:27 AM 0.000 0.000 0.000 0.000 0.000 Not Reported Not Reported
12/06/2018 05:31 PM 23.90 23.36 27.68 23.90 96.0 Not Reported 3.58 S 4.25 S 4.92 S No 0.000 No Precipitation 12/05/2018 08:22 AM 12/05/2018 08:27 AM 0.000 0.000 0.000 0.000 0.000 Not Reported Not Reported
12/06/2018 05:46 PM 23.90 23.36 27.68 23.90 96.0 Not Reported 3.13 S 4.03 SW 4.47 S No 0.000 No Precipitation 12/05/2018 08:22 AM 12/05/2018 08:27 AM 0.000 0.000 0.000 0.000 0.000 Not Reported Not Reported
12/06/2018 06:01 PM 23.90 23.36 27.68 23.90 97.0 Not Reported 2.68 SE 2.46 S 4.25 S No 0.000 No Precipitation 12/05/2018 08:22 AM 12/05/2018 08:27 AM 0.000 0.000 0.000 0.000 0.000 Not Reported Not Reported
12/06/2018 06:16 PM 23.54 23.18 27.68 23.72 97.0 Not Reported 4.70 S 4.92 S 7.38 S No 0.000 No Precipitation 12/05/2018 08:22 AM 12/05/2018 08:27 AM 0.000 0.000 0.000 0.000 0.000 Not Reported Not Reported
12/06/2018 06:31 PM 23.54 23.18 27.68 23.72 97.0 Not Reported 4.03 S 2.01 S 5.59 S No 0.000 No Precipitation 12/05/2018 08:22 AM 12/05/2018 08:27 AM 0.000 0.000 0.000 0.000 0.000 Not Reported Not Reported
12/06/2018 06:46 PM 23.54 23.18 27.68 23.72 97.0 Not Reported 3.13 S 4.03 S 4.70 SE No 0.000 No Precipitation 12/05/2018 08:22 AM 12/05/2018 08:27 AM 0.000 0.000 0.000 0.000 0.000 Not Reported Not Reported
12/06/2018 07:01 PM 23.18 22.64 27.68 23.36 96.0 Not Reported 4.70 S 2.91 S 5.82 S No 0.000 No Precipitation 12/05/2018 08:22 AM 12/05/2018 08:27 AM 0.000 0.000 0.000 0.000 0.000 Not Reported Not Reported
12/06/2018 07:16 PM 23.00 22.82 27.68 23.18 98.0 Not Reported 5.37 S 5.82 S 6.49 SE No 0.000 No Precipitation 12/05/2018 08:22 AM 12/05/2018 08:27 AM 0.000 0.000 0.000 0.000 0.000 Not Reported Not Reported
12/06/2018 07:31 PM 23.00 22.82 27.68 23.18 98.0 Not Reported 3.80 S 2.01 S 5.14 S No 0.000 No Precipitation 12/05/2018 08:22 AM 12/05/2018 08:27 AM 0.000 0.000 0.000 0.000 0.000 Not Reported Not Reported
12/06/2018 07:46 PM 23.00 22.64 27.68 23.18 97.0 Not Reported 5.59 SE 3.80 S 5.14 S No 0.000 No Precipitation 12/05/2018 08:22 AM 12/05/2018 08:27 AM 0.000 0.000 0.000 0.000 0.000 Not Reported Not Reported
12/06/2018 08:01 PM 23.00 22.64 27.68 23.00 98.0 Not Reported 2.91 S 3.80 S 7.16 S No 0.000 No Precipitation 12/05/2018 08:22 AM 12/05/2018 08:27 AM 0.000 0.000 0.000 0.000 0.000 Not Reported Not Reported
12/06/2018 08:16 PM 22.82 22.64 27.68 23.00 97.0 Not Reported 5.37 S 5.82 S 7.61 S No 0.000 No Precipitation 12/05/2018 08:22 AM 12/05/2018 08:27 AM 0.000 0.000 0.000 0.000 0.000 Not Reported Not Reported
12/06/2018 08:31 PM 23.00 22.64 27.68 23.00 98.0 Not Reported 1.79 S 2.46 S 7.38 SE No 0.000 No Precipitation 12/05/2018 08:22 AM 12/05/2018 08:27 AM 0.000 0.000 0.000 0.000 0.000 Not Reported Not Reported
12/06/2018 08:46 PM 22.82 22.64 27.68 23.00 97.0 Not Reported 3.13 SE 3.13 SE 5.37 S No 0.000 No Precipitation 12/05/2018 08:22 AM 12/05/2018 08:27 AM 0.000 0.000 0.000 0.000 0.000 Not Reported Not Reported
12/06/2018 09:01 PM 22.82 22.64 27.68 22.82 98.0 Not Reported 3.13 SE 2.91 E 6.71 SE No 0.000 No Precipitation 12/05/2018 08:22 AM 12/05/2018 08:27 AM 0.000 0.000 0.000 0.000 0.000 Not Reported Not Reported
12/06/2018 09:16 PM 22.82 22.64 27.68 22.82 98.0 Not Reported 3.13 S 4.03 SE 5.82 SE No 0.000 No Precipitation 12/05/2018 08:22 AM 12/05/2018 08:27 AM 0.000 0.000 0.000 0.000 0.000 Not Reported Not Reported
12/06/2018 09:31 PM 23.00 22.82 27.68 22.82 98.0 Not Reported 3.58 S 3.58 SW 6.93 SE No 0.000 No Precipitation 12/05/2018 08:22 AM 12/05/2018 08:27 AM 0.000 0.000 0.000 0.000 0.000 Not Reported Not Reported
12/06/2018 09:46 PM 22.82 22.46 27.68 22.82 97.0 Not Reported 3.80 S 2.68 S 8.05 S No 0.000 No Precipitation 12/05/2018 08:22 AM 12/05/2018 08:27 AM 0.000 0.000 0.000 0.000 0.000 Not Reported Not Reported
12/06/2018 10:01 PM 22.82 22.64 27.68 22.82 98.0 Not Reported 2.24 SE 2.91 SE 4.25 S No 0.000 No Precipitation 12/05/2018 08:22 AM 12/05/2018 08:27 AM 0.000 0.000 0.000 0.000 0.000 Not Reported Not Reported
12/06/2018 10:16 PM 23.00 22.64 27.68 22.82 98.0 Not Reported 4.70 SE 5.14 SE 5.59 SW No 0.000 No Precipitation 12/05/2018 08:22 AM 12/05/2018 08:27 AM 0.000 0.000 0.000 0.000 0.000 Not Reported Not Reported
12/06/2018 10:31 PM 23.00 22.82 27.68 22.82 98.0 Not Reported 3.80 S 5.59 S 6.26 S No 0.000 No Precipitation 12/05/2018 08:22 AM 12/05/2018 08:27 AM 0.000 0.000 0.000 0.000 0.000 Not Reported Not Reported
12/06/2018 10:46 PM 22.82 22.64 27.68 22.82 97.0 Not Reported 4.47 S 5.82 SE 6.71 SE No 0.000 No Precipitation 12/05/2018 08:22 AM 12/05/2018 08:27 AM 0.000 0.000 0.000 0.000 0.000 Not Reported Not Reported
12/06/2018 11:01 PM 22.82 22.46 27.68 22.82 97.0 Not Reported 1.79 SE 2.01 SE 5.37 E No 0.000 No Precipitation 12/05/2018 08:22 AM 12/05/2018 08:27 AM 0.000 0.000 0.000 0.000 0.000 Not Reported Not Reported
12/06/2018 11:16 PM 22.64 22.64 27.68 22.82 98.0 Not Reported 4.03 S 4.47 SE 5.59 SE No 0.000 No Precipitation 12/05/2018 08:22 AM 12/05/2018 08:27 AM 0.000 0.000 0.000 0.000 0.000 Not Reported Not Reported
12/06/2018 11:31 PM 23.00 22.82 27.68 22.82 98.0 Not Reported 3.58 S 2.68 SE 4.92 S No 0.000 No Precipitation 12/05/2018 08:22 AM 12/05/2018 08:27 AM 0.000 0.000 0.000 0.000 0.000 Not Reported Not Reported
12/06/2018 11:47 PM 23.00 22.64 27.68 22.82 98.0 Not Reported 2.91 SE 2.24 S 4.47 SE No 0.000 No Precipitation 12/05/2018 08:22 AM 12/05/2018 08:27 AM 0.000 0.000 0.000 0.000 0.000 Not Reported Not Reported